GFSNW_prec_cloud_159.txt.gz
Cloud_Cover
100 100 100 100 100 100 95 100 94 100 100 100 100 100 100 99 5 39 98 67 28 64 93 5 5 30 99 95 100 100 97 100 100 100 100 100 100 100 100 100 100 99 81 25
100 100 100 100 100 100 100 96 100 100 100 100 100 100 100 100 100 100 100 100 100 100 100 44 6 50 88 93 100 100 98 88 100 98 100 100 100 100 100 100 100 100 100 100
100 100 100 100 100 100 100 100 100 100 100 100 100 100 100 100 100 100 100 100 100 100 100 100 100 89 42 99 100 100 97 100 100 100 100 100 100 100 100 100 100 100 100 100
68 90 100 100 100 100 100 76 100 100 98 100 100 100 100 100 100 100 100 100 100 100 100 100 100 100 99 100 100 100 44 95 100 97 100 100 100 100 100 100 100 100 100 100
3 4 37 100 100 100 100 94 93 100 100 100 100 100 100 100 100 100 100 100 100 100 100 100 100 100 100 100 100 100 81 56 70 83 100 100 100 100 100 100 100 100 100 25
51 4 0 2 83 100 100 69 36 99 100 100 100 100 100 100 100 100 100 100 100 100 100 100 100 100 100 100 100 100 100 100 100 42 94 100 100 100 100 100 100 100 100 100
100 44 19 5 6 59 10 8 5 60 9 5 23 96 100 100 100 100 100 100 100 100 100 100 100 100 100 100 100 100 100 97 100 100 100 100 40 58 100 99 100 100 100 100
100 100 100 46 5 5 78 79 33 14 5 0 1 17 100 100 100 100 100 100 100 100 100 100 100 100 100 100 100 100 100 100 100 100 100 100 99 98 100 100 100 100 100 100
100 100 100 100 75 7 26 99 27 6 8 38 38 2 1 66 100 100 100 100 100 100 100 100 100 100 100 100 100 100 100 100 100 100 100 89 85 100 100 100 100 100 100 100
100 100 100 100 98 88 90 100 27 82 100 100 100 88 51 4 5 11 26 100 100 100 100 100 100 100 100 100 100 100 100 100 100 100 100 78 70 100 100 100 57 100 100 100
100 100 100 100 100 88 92 100 42 81 100 100 100 100 100 100 85 5 3 22 100 100 100 100 100 100 100 98 100 100 100 100 100 100 100 43 70 100 71 70 100 100 100 100
100 100 100 100 100 100 100 100 93 95 99 100 100 100 100 100 23 18 11 3 9 100 100 100 100 100 100 99 100 100 100 100 100 100 100 95 83 77 57 97 64 95 100 100
100 100 100 100 100 100 100 100 100 100 100 96 84 100 100 38 86 4 7 38 26 97 100 100 100 100 100 100 100 100 100 100 100 100 100 100 100 100 99 100 98 100 100 98
100 100 100 100 100 100 100 100 100 100 100 100 100 100 100 89 5 0 5 5 8 100 100 100 100 100 100 100 99 84 83 70 82 100 100 100 100 100 100 100 100 100 100 92
100 100 100 100 100 100 100 100 100 100 100 99 100 78 99 99 15 0 3 3 99 100 100 100 100 100 100 100 92 78 100 100 100 100 100 100 100 100 100 100 100 100 100 100
100 100 100 100 100 100 100 100 100 100 100 100 85 98 90 96 1 3 0 45 100 100 100 100 100 100 100 91 14 100 46 95 100 100 100 100 100 100 100 100 100 100 100 100
100 100 100 100 100 100 100 99 100 100 100 100 98 46 100 100 60 46 88 73 100 100 100 100 99 100 100 100 100 98 6 100 100 100 100 100 100 100 100 100 100 100 100 100
100 100 100 100 100 100 100 100 98 98 100 74 98 100 100 100 100 100 100 100 100 100 100 100 97 100 100 100 100 48 90 100 100 100 100 100 100 100 100 100 100 100 93 100
100 100 100 100 100 100 100 100 100 98 11 89 100 100 100 100 100 100 100 100 100 100 100 100 100 100 100 100 71 57 69 100 100 100 100 100 100 100 100 100 100 100 100 100
100 100 100 100 100 100 100 51 90 100 100 100 100 100 100 100 100 100 100 100 100 100 100 100 100 100 100 78 95 100 100 60 91 100 95 98 100 100 100 99 51 72 95 99
100 100 100 100 90 89 98 78 66 100 100 100 100 100 100 100 100 100 100 100 100 100 100 100 100 100 100 100 100 100 89 78 100 41 56 100 100 99 34 6 2 0 1 4
97 100 91 100 67 88 81 95 100 100 100 100 100 100 100 92 100 100 100 100 100 100 100 100 100 100 100 100 96 100 86 58 14 12 5 1 0 0 1 3 0 1 2 7
100 100 100 100 100 100 100 100 100 100 100 100 100 100 100 100 91 100 100 100 100 100 100 100 100 100 100 100 100 100 92 56 9 34 9 5 5 50 17 38 46 45 40 98
100 100 100 100 100 100 100 100 100 100 100 100 100 100 100 90 70 100 100 100 100 100 100 100 76 87 99 100 100 100 97 45 37 72 20 100 100 100 100 100 100 95 77 100
100 100 100 100 100 100 100 100 100 100 100 100 98 89 11 60 100 100 100 100 100 100 100 100 100 100 100 100 100 100 97 60 69 42 100 100 100 100 99 100 100 100 100 100
6 44 100 100 100 100 100 100 100 100 100 100 100 74 5 25 100 100 100 100 100 100 100 100 98 100 100 100 100 100 82 80 58 98 100 100 58 90 97 93 87 88 100 100
8 97 99 99 100 100 100 100 100 100 100 100 99 86 91 92 96 100 100 100 100 100 100 100 100 100 100 100 100 100 92 100 100 93 66 81 90 99 100 100 92 92 80 83

GFSNW_prec_cloud_162.txt.gz
Cloud_Cover
100 100 100 100 100 100 100 100 100 34 92 72 100 100 100 100 100 100 100 100 100 95 52 65 79 22 99 73 22 62 41 95 50 29 100 45 100 100 100 100 100 100 100 100
100 100 100 100 100 100 100 100 99 45 100 71 22 97 100 100 100 100 100 100 100 100 70 67 83 100 100 98 59 17 67 13 67 48 58 99 100 95 100 100 100 100 100 100
100 100 100 100 100 100 100 100 100 96 100 66 74 100 100 100 100 100 100 100 100 93 93 100 90 100 100 100 77 100 100 100 67 23 100 94 100 100 100 100 100 100 100 99
4 36 100 100 100 100 100 100 100 99 92 62 85 100 100 100 100 100 100 100 100 100 100 100 100 100 100 100 100 100 100 100 100 43 53 45 96 100 97 100 100 100 100 100
64 2 5 99 100 100 100 94 11 77 74 100 100 100 100 100 100 100 100 100 100 100 100 100 100 100 100 100 100 100 100 100 100 97 91 97 100 100 100 100 100 100 100 95
96 96 4 0 59 100 100 100 100 100 100 100 100 100 100 100 100 100 100 100 100 100 100 100 100 100 100 100 100 100 100 100 100 90 100 100 37 92 100 100 100 100 100 100
100 100 100 6 32 98 80 83 100 100 98 100 100 100 100 100 100 100 100 100 100 100 100 100 100 100 100 100 100 100 100 100 100 96 100 100 98 99 100 100 100 100 100 100
100 100 100 100 5 98 100 24 65 98 96 100 100 58 53 100 100 100 100 100 100 100 100 100 100 100 100 100 100 100 100 100 100 100 100 56 100 100 100 100 100 100 100 100
100 100 100 100 98 91 100 98 98 98 98 100 100 98 18 5 10 88 100 100 100 100 100 100 100 100 100 100 100 100 100 100 100 100 100 99 88 100 100 100 100 100 100 100
100 100 100 100 100 100 100 100 20 98 100 100 55 45 11 5 2 9 90 100 100 100 90 93 100 100 100 100 100 100 100 100 100 100 100 72 93 100 100 100 100 100 100 100
100 100 100 100 100 100 100 100 48 96 100 99 95 94 100 100 90 47 86 43 100 100 100 90 100 82 100 100 100 100 100 100 100 100 100 95 99 100 44 100 100 100 100 100
100 100 100 100 100 100 100 90 94 75 100 100 100 100 100 100 100 100 100 89 5 94 100 100 100 99 99 100 100 100 100 100 100 100 100 100 100 100 100 98 61 100 100 100
100 100 100 100 100 100 100 100 85 100 100 100 100 100 86 100 79 11 95 100 100 87 78 89 100 100 88 100 100 100 100 100 100 100 100 100 100 100 100 72 90 51 92 100
100 100 100 100 100 100 100 100 100 74 93 100 100 100 91 100 94 15 6 30 71 70 91 98 100 100 100 100 100 100 100 100 100 100 100 100 100 100 100 100 100 100 93 91
100 100 100 100 100 100 100 100 100 88 94 100 100 100 100 100 100 70 5 26 76 72 98 85 90 100 100 100 100 100 100 100 100 100 100 96 78 98 98 64 92 100 100 100
100 100 100 100 100 100 100 100 100 100 100 100 100 100 100 100 100 100 98 100 32 99 99 80 100 100 100 100 100 100 100 84 13 12 6 12 100 100 71 94 100 100 99 100
100 100 100 100 100 100 100 99 92 100 100 100 100 100 90 100 100 100 94 86 99 88 100 100 100 100 100 100 100 100 87 59 5 5 20 77 68 92 100 100 100 100 100 100
100 100 100 100 100 100 100 100 100 100 100 100 100 100 100 83 100 100 100 98 100 100 100 100 100 100 100 100 100 92 89 100 31 62 58 100 100 100 100 100 100 100 100 100
100 100 100 100 100 100 100 100 100 100 100 100 100 100 100 100 100 100 100 100 100 100 100 100 100 100 100 100 100 100 100 97 90 100 100 100 100 100 100 100 100 100 100 100
100 100 100 100 100 100 100 100 100 100 100 96 100 100 100 100 100 100 100 100 100 100 100 100 100 100 100 100 100 100 100 65 60 51 33 100 100 100 100 100 100 100 100 100
100 100 100 100 100 100 100 93 96 100 100 100 100 100 100 100 100 100 100 100 100 100 100 100 100 100 100 100 100 100 100 100 100 96 11 44 100 66 87 98 100 48 5 4
82 76 75 100 99 100 100 89 78 97 100 100 100 100 100 100 100 99 100 100 100 100 100 100 100 100 100 100 100 100 100 100 100 100 100 66 5 10 9 5 1 0 41 98
100 100 90 98 91 97 69 81 100 100 100 100 100 100 100 100 100 100 100 100 100 100 100 100 100 100 100 100 100 100 100 100 100 75 11 6 5 9 5 18 89 100 100 100
100 100 100 100 100 100 48 100 100 100 100 100 100 100 100 100 100 100 100 100 100 97 100 100 100 100 100 100 100 100 100 92 44 46 44 54 76 94 80 84 44 45 68 90
100 100 100 100 100 100 100 100 100 100 100 100 100 100 58 100 100 100 100 100 100 100 99 94 100 100 100 100 100 100 100 99 73 85 88 100 100 100 100 100 100 88 79 100
100 100 100 100 100 100 100 100 100 100 100 100 100 100 100 100 100 99 86 100 100 100 100 100 100 100 100 100 100 100 93 96 100 100 100 93 88 100 100 100 100 100 93 100
44 100 100 100 100 100 100 100 100 100 100 100 100 100 72 81 89 99 99 46 61 90 90 88 99 100 100 100 98 100 81 72 90 100 100 100 100 100 100 100 100 100 87 82

GFSNW_prec_cloud_165.txt.gz
Cloud_Cover
4 5 5 9 91 99 89 100 100 98 100 100 100 100 100 100 100 100 100 91 31 100 100 100 100 100 100 100 99 100 73 100 50 100 99 100 92 82 100 100 100 100 69 11
18 100 87 100 100 100 100 100 100 100 100 99 69 100 100 100 100 100 100 100 100 100 93 100 100 100 100 100 100 100 100 100 100 100 100 66 29 44 94 100 100 100 100 74
5 34 56 100 100 100 100 100 100 100 100 97 100 100 96 100 93 100 100 100 100 100 100 100 100 99 100 86 100 100 100 100 100 100 100 100 100 60 72 100 100 100 99 91
0 0 3 26 100 100 100 100 100 100 100 97 94 100 100 100 100 100 100 100 100 100 100 100 100 78 100 64 87 100 100 74 75 99 100 100 100 100 100 82 26 100 99 71
5 5 0 5 77 100 100 95 100 100 100 100 100 100 100 100 100 100 100 100 100 100 100 100 100 100 85 93 99 100 100 100 100 91 38 100 100 100 100 100 100 27 95 100
64 28 79 28 67 100 100 94 100 100 100 100 100 100 100 100 100 100 100 100 100 100 100 100 100 100 100 95 99 100 100 100 100 100 100 100 95 42 100 71 99 100 100 100
100 100 100 86 12 95 100 100 100 100 100 100 100 100 100 100 100 100 100 100 100 100 100 100 100 100 100 100 100 100 100 100 100 100 100 100 100 100 96 95 100 100 100 100
100 100 100 100 95 95 99 100 100 100 100 100 100 100 100 100 100 82 50 100 100 100 100 100 100 100 94 100 100 100 96 100 100 100 100 100 98 100 100 61 47 100 100 100
100 100 100 100 97 100 100 99 94 95 97 98 100 100 100 100 100 100 100 95 100 100 100 100 98 100 100 100 100 100 100 100 100 100 100 100 100 100 96 100 6 100 100 100
100 100 100 100 100 100 100 100 10 92 100 79 89 66 100 96 100 100 100 71 99 100 100 100 100 100 100 100 100 100 100 100 100 100 100 100 100 100 100 100 18 93 100 100
100 100 100 100 100 100 100 100 100 100 99 87 99 95 97 60 99 99 99 100 100 94 100 100 100 100 99 100 100 100 100 100 100 100 100 100 100 100 100 100 98 100 100 100
100 100 100 100 100 100 100 100 100 100 99 99 95 100 5 25 99 98 100 97 88 96 49 100 100 98 88 39 100 100 100 100 100 100 100 100 100 100 100 69 100 100 100 100
100 100 100 100 100 100 100 100 100 100 100 100 100 94 34 83 66 72 100 100 100 100 100 91 99 100 100 100 100 100 100 100 100 100 100 100 100 100 100 100 100 100 56 98
100 100 100 100 100 100 100 100 100 100 100 100 100 100 100 100 45 6 36 99 100 100 100 99 100 100 100 100 100 100 100 100 100 100 100 100 100 100 100 100 100 100 100 100
100 100 100 100 100 100 100 100 100 100 100 100 100 100 100 99 92 81 80 96 100 99 100 100 81 100 58 99 92 88 100 100 100 100 100 100 100 100 100 100 100 100 100 100
100 100 100 100 100 100 100 100 100 100 100 100 100 100 100 100 100 42 100 100 100 100 100 88 99 100 100 100 97 85 100 100 100 100 100 97 71 12 100 100 100 100 100 100
100 100 100 100 100 100 100 100 100 100 100 100 100 100 100 100 100 95 100 100 100 99 100 94 95 100 97 49 100 100 100 100 100 98 100 94 48 100 86 84 84 18 100 100
100 100 100 100 100 100 100 100 100 100 100 100 100 100 99 100 80 98 100 100 100 82 78 65 89 82 98 100 100 100 100 100 100 30 5 5 52 69 86 80 81 97 100 100
100 100 100 100 100 100 100 100 100 100 100 98 100 100 100 94 100 100 100 100 100 100 83 73 100 100 100 100 100 100 100 99 100 72 7 79 100 100 100 100 100 100 100 100
100 100 100 100 100 100 100 100 100 100 100 100 100 98 100 100 100 100 100 100 100 100 100 100 100 100 100 100 100 100 100 100 74 36 100 100 100 100 100 100 100 100 100 100
100 100 100 100 100 100 100 100 100 95 83 93 93 70 100 100 100 100 100 100 100 100 100 100 100 100 100 100 100 100 100 94 83 57 61 78 54 98 100 100 100 100 100 100
100 100 100 100 100 100 100 100 98 100 100 79 37 100 100 100 100 100 100 100 100 100 100 100 100 100 100 100 100 100 100 100 100 62 100 100 90 97 62 17 55 37 88 100
100 98 97 99 98 100 100 100 93 100 100 25 99 100 100 100 100 100 100 100 100 100 100 100 100 100 100 100 100 100 100 100 100 100 100 100 94 71 62 87 100 100 100 100
39 29 77 63 92 22 23 5 6 72 100 100 100 100 100 100 100 100 100 100 100 100 100 100 100 100 100 100 100 100 100 100 100 100 100 100 100 100 100 100 100 100 100 100
100 100 99 68 81 99 100 31 38 100 100 100 100 100 100 100 100 100 100 100 100 100 100 100 100 100 100 100 100 100 100 100 100 100 100 100 100 100 100 100 100 100 100 100
100 100 100 100 100 100 100 93 100 100 100 100 100 100 100 100 100 100 100 100 100 100 100 100 100 100 100 100 100 100 100 100 100 100 100 100 100 100 100 100 100 100 100 100
100 100 100 100 100 100 100 100 100 100 100 100 100 100 100 100 96 100 100 100 100 100 98 100 100 100 100 100 100 100 100 100 100 100 100 100 100 100 100 100 100 100 100 96

GFSNW_prec_cloud_168.txt.gz
Cloud_Cover
100 98 98 100 100 100 100 100 100 34 100 100 100 100 97 100 100 100 100 100 100 100 100 100 100 100 100 100 100 100 100 100 96 99 99 100 100 100 100 100 99 100 100 15
100 100 96 89 5 92 100 100 77 72 59 100 100 12 83 100 100 100 100 100 100 100 100 100 100 100 100 100 100 100 100 100 100 100 100 100 100 100 100 100 100 100 100 74
100 17 52 31 14 92 97 100 100 65 100 100 100 100 88 97 100 100 100 100 100 100 100 100 100 100 100 100 100 100 100 100 100 100 100 100 100 100 100 100 100 100 100 55
5 2 0 0 72 96 100 100 94 67 97 91 100 100 100 100 100 100 100 100 100 100 100 100 100 100 100 100 100 100 100 100 100 100 100 100 100 100 100 100 100 100 100 67
0 5 5 3 40 69 99 100 93 90 98 99 100 100 100 100 100 100 100 100 100 100 100 100 100 100 100 100 100 100 100 100 100 100 100 100 100 100 100 100 100 100 100 100
4 0 5 40 5 59 100 97 90 100 90 89 100 100 100 100 100 100 100 100 100 100 96 99 100 100 100 100 100 100 99 100 100 100 100 100 100 100 100 100 100 100 100 100
5 5 4 5 5 40 99 96 100 100 100 100 100 100 100 100 100 100 100 38 72 100 100 69 100 100 100 100 100 100 100 100 100 52 100 100 100 100 100 100 100 100 100 100
46 16 32 11 51 100 100 100 100 100 100 100 100 100 100 100 100 100 100 64 94 100 100 100 100 100 100 100 100 100 100 100 100 91 55 100 100 100 100 100 100 100 100 100
100 100 100 100 100 100 100 100 100 100 100 100 100 100 100 100 100 97 41 58 99 57 97 72 98 100 100 100 100 100 100 100 100 100 100 90 37 100 100 100 86 100 100 100
100 100 100 100 100 100 100 100 100 100 100 100 100 82 99 96 99 7 12 59 26 62 33 99 99 97 100 100 100 100 100 100 100 100 100 92 98 100 100 100 100 100 98 99
99 100 100 100 100 100 100 100 100 100 100 100 100 78 99 69 12 61 21 51 87 100 100 97 88 100 100 100 100 100 100 100 100 100 100 90 100 100 100 100 100 100 84 81
100 100 100 100 100 100 100 100 100 100 100 100 25 69 84 19 84 73 14 59 100 100 100 100 100 100 100 100 100 98 88 100 100 100 100 100 100 100 100 100 100 100 100 100
100 100 100 100 100 100 100 100 100 100 100 100 100 69 7 37 7 5 39 64 85 58 89 95 98 86 84 100 99 100 100 100 100 100 100 100 100 80 100 100 100 100 100 100
100 100 100 100 100 100 100 100 100 100 100 100 100 100 99 11 69 39 42 25 34 66 100 94 97 97 41 100 96 48 54 100 100 100 100 100 100 98 99 100 96 73 61 100
100 100 100 100 100 100 100 100 100 100 100 100 100 100 100 89 100 100 89 5 5 93 100 96 50 92 90 7 100 5 11 66 100 100 100 100 100 100 82 100 100 100 100 100
100 100 100 100 100 100 100 100 100 100 100 100 100 100 100 69 100 74 46 26 58 100 98 100 56 6 63 95 43 76 97 97 100 100 100 100 100 100 100 5 25 100 100 100
100 100 100 100 100 100 100 100 100 100 100 100 100 100 22 31 82 97 100 98 100 100 92 86 63 30 95 68 44 15 50 6 74 100 100 100 100 100 100 100 53 5 10 99
100 100 100 100 100 100 100 100 100 100 100 100 100 100 59 100 100 100 86 98 100 100 100 100 71 29 72 81 4 0 100 98 100 100 100 100 100 100 100 100 58 85 35 55
100 100 100 100 100 100 100 100 100 100 100 100 100 100 100 100 60 100 100 100 100 100 89 84 100 45 66 3 27 95 100 100 100 100 100 100 100 54 9 86 96 91 100 100
100 100 100 100 100 100 100 100 100 100 100 100 70 99 93 53 100 97 100 100 100 100 100 100 100 100 100 100 100 100 100 100 100 100 27 93 100 99 100 100 100 100 100 100
100 100 100 100 100 100 100 100 100 100 98 100 96 70 73 100 100 100 100 100 100 100 100 100 100 100 100 100 100 100 100 100 100 77 9 92 100 100 100 100 100 100 100 100
100 100 100 100 100 100 100 100 100 98 100 100 57 62 100 100 100 100 100 100 100 100 100 100 100 100 100 100 98 100 100 100 100 100 35 97 100 100 100 100 100 100 100 100
100 100 100 100 100 100 100 96 100 100 100 52 75 96 100 100 98 100 100 100 100 100 100 100 100 100 100 100 100 100 100 100 100 100 100 97 98 100 98 100 100 100 100 100
100 100 100 100 100 100 100 100 96 98 99 40 27 100 100 100 100 100 100 100 100 100 100 100 100 100 100 100 100 100 100 100 100 100 100 100 100 100 100 100 100 100 100 100
78 45 74 85 100 99 95 62 7 45 100 49 100 100 97 100 100 100 100 100 100 100 100 100 100 100 100 100 100 100 100 100 100 100 100 100 100 100 100 100 100 100 100 100
100 100 100 100 76 74 96 11 28 39 76 100 100 100 100 100 100 100 100 100 100 100 100 100 100 100 100 100 100 100 100 100 100 100 100 100 100 100 100 100 98 98 100 100
100 100 100 100 100 100 100 99 44 51 100 100 100 100 98 41 99 100 100 100 100 100 100 100 100 100 100 100 100 100 100 100 100 100 100 100 100 100 100 100 73 74 64 100

GFSNW_prec_cloud_171.txt.gz
Cloud_Cover
100 100 100 100 100 100 100 100 100 100 100 100 100 100 93 98 95 99 100 100 100 100 100 100 100 100 100 100 100 100 100 100 100 58 100 100 100 100 100 100 100 100 100 100
100 100 100 100 99 100 100 100 100 100 100 100 100 100 100 100 100 100 100 100 100 100 100 100 100 100 100 100 100 100 100 100 100 100 100 100 100 100 100 100 100 100 100 100
100 100 100 100 100 100 93 100 100 100 100 100 100 100 100 74 100 100 100 100 100 100 100 100 100 100 100 100 100 100 100 100 100 100 100 100 100 100 100 100 100 100 100 100
100 100 100 100 100 100 100 100 96 100 100 100 100 98 9 19 100 100 100 98 96 100 100 100 100 100 100 100 100 100 100 100 100 100 100 100 100 100 100 100 100 100 100 100
99 100 98 100 94 95 100 100 100 79 62 77 63 71 91 91 100 100 100 100 100 100 100 100 100 100 100 100 100 100 100 100 100 100 100 100 100 100 100 100 100 100 100 100
0 0 5 4 14 91 100 100 100 100 89 8 5 47 45 100 100 100 100 100 100 100 100 100 100 100 100 100 100 100 100 100 100 100 100 100 100 100 100 100 100 100 100 100
44 3 0 68 5 71 32 55 100 100 81 70 13 32 54 35 100 100 100 100 100 29 85 100 100 100 28 60 66 100 100 100 100 100 100 100 100 100 100 100 100 100 100 100
100 95 5 5 5 1 5 31 97 100 100 5 5 57 29 21 24 25 27 59 77 84 21 5 23 62 12 66 7 41 100 100 100 100 94 24 64 89 100 100 100 100 100 100
100 100 100 5 5 5 5 16 68 100 100 50 99 95 35 10 44 25 33 100 100 100 83 85 37 5 6 61 27 71 100 100 100 100 94 81 4 16 98 93 5 98 100 100
100 100 100 100 100 100 100 100 100 91 100 100 46 72 94 99 41 5 13 5 4 2 34 77 28 5 6 4 98 100 100 100 100 100 100 100 100 71 78 21 14 77 98 100
100 100 100 100 100 100 100 100 100 100 100 100 91 65 84 90 80 46 5 6 5 5 96 98 40 5 46 41 39 100 85 100 100 100 100 56 94 100 99 98 44 75 100 96
100 100 100 100 100 100 100 100 100 100 100 100 100 100 89 39 10 8 6 5 5 6 10 100 68 100 99 100 31 100 97 100 100 100 100 100 100 100 100 100 100 100 99 100
100 100 100 100 100 100 100 100 100 100 100 100 100 100 80 85 15 5 47 14 5 54 91 100 57 20 5 5 5 100 100 100 100 100 100 100 100 100 100 100 100 100 100 100
100 100 100 100 100 100 100 99 100 100 100 100 100 78 100 53 20 89 42 32 10 5 4 28 87 45 79 5 3 74 100 100 100 95 100 100 97 100 44 100 100 100 100 100
100 100 100 100 100 100 100 100 100 100 100 100 44 82 97 60 98 100 98 42 5 6 7 20 14 5 26 5 5 5 100 100 100 100 86 100 100 100 97 100 100 100 100 64
92 23 100 100 100 100 100 100 100 100 100 63 97 100 95 98 100 99 86 5 5 44 92 80 28 27 97 98 6 1 20 47 93 100 100 100 100 100 100 100 100 100 100 94
100 100 100 100 100 100 100 100 100 100 100 100 100 99 98 100 53 22 5 6 27 94 100 100 100 100 100 100 95 11 0 5 5 87 100 100 100 100 100 100 100 100 100 20
100 100 100 100 100 100 100 100 100 100 100 100 92 97 100 100 63 64 88 96 88 100 100 100 100 100 100 98 39 10 0 0 3 98 100 100 100 100 100 100 100 100 100 100
100 100 100 100 100 100 100 100 100 100 66 32 97 100 100 66 66 65 87 96 100 100 100 100 100 100 83 4 4 0 4 0 1 13 100 100 100 100 100 100 100 100 81 50
100 100 100 100 100 100 100 100 100 100 100 90 100 100 5 19 54 50 100 94 100 100 100 100 100 100 88 6 0 30 100 100 86 100 100 100 100 100 100 100 100 68 30 56
100 100 100 100 100 100 100 100 100 89 97 100 97 21 59 93 63 99 100 100 100 100 100 100 100 100 100 100 100 100 100 100 100 100 100 100 100 100 100 100 100 100 100 100
100 100 100 100 100 100 100 100 96 38 72 82 67 90 83 82 100 100 100 100 100 100 100 100 100 100 100 98 100 100 100 100 100 100 100 100 100 100 100 100 100 100 100 100
100 100 100 100 100 100 100 99 78 15 79 91 97 93 62 100 100 100 100 100 100 100 100 100 100 100 100 100 100 100 100 100 100 100 100 100 100 100 100 100 100 100 100 100
100 100 100 100 100 100 84 81 73 86 33 93 93 100 100 100 77 100 100 100 100 100 100 100 100 100 100 100 100 100 100 100 100 100 100 100 100 100 100 100 100 100 100 100
100 100 100 100 96 96 60 87 100 100 100 100 100 100 100 100 99 100 100 100 100 100 100 100 100 100 100 100 100 100 100 100 100 100 100 100 100 100 100 100 100 100 100 100
100 100 100 100 100 100 100 100 100 72 99 95 95 100 100 77 98 100 100 100 100 100 100 100 100 100 100 100 100 100 100 100 100 100 100 100 100 100 100 100 100 100 100 100
100 100 100 94 74 49 51 90 30 95 49 31 92 100 94 72 100 100 100 100 100 100 100 100 100 100 100 100 100 100 100 100 100 100 100 100 100 100 100 100 98 100 100 100

GFSNW_prec_cloud_174.txt.gz
Cloud_Cover
100 100 100 100 100 100 100 100 100 100 100 100 100 100 100 100 100 100 100 100 100 100 100 100 100 100 100 100 100 100 100 100 100 100 100 100 100 100 100 100 100 100 100 100
100 100 100 100 100 100 100 100 100 100 100 100 100 100 100 100 100 100 100 100 100 99 100 100 100 100 98 100 100 100 100 100 100 100 100 100 100 100 100 100 100 100 100 100
100 100 100 100 100 100 100 100 100 100 100 100 100 100 100 100 100 100 100 100 100 100 100 100 100 100 100 100 100 100 100 100 100 100 100 100 100 100 100 100 100 100 100 99
100 100 100 100 100 100 100 100 100 100 100 100 100 100 100 100 100 100 100 100 100 100 100 96 100 100 100 100 100 100 100 100 100 100 98 100 100 100 100 100 100 100 100 100
100 100 100 100 100 100 100 100 100 100 100 100 100 100 100 100 100 100 100 100 100 100 99 50 43 97 100 100 100 100 100 100 100 100 100 100 100 100 100 100 100 100 100 100
100 100 100 100 100 100 100 100 100 100 100 100 95 100 100 12 9 11 46 100 100 100 100 100 92 57 80 40 93 92 100 100 100 100 100 100 100 100 100 100 100 100 100 100
72 11 100 100 100 100 100 100 100 100 100 97 72 5 5 5 23 95 97 100 100 97 100 100 100 9 6 76 100 45 13 98 95 30 54 100 99 100 100 100 100 100 100 100
100 100 16 9 32 49 44 39 98 100 75 79 13 5 5 12 8 34 68 100 100 97 98 41 5 12 78 50 47 92 45 6 100 100 100 100 22 100 100 99 100 100 100 100
100 100 100 25 40 98 64 9 28 100 99 38 100 87 27 65 92 77 5 91 12 87 92 74 10 6 5 0 0 56 100 100 100 100 100 83 20 100 100 100 93 100 100 100
79 100 100 100 100 8 58 12 27 98 98 93 71 34 74 100 91 27 62 5 5 4 5 31 18 6 5 4 0 0 4 10 100 100 100 62 62 100 100 100 64 82 57 100
50 83 100 100 100 100 90 73 62 39 97 77 100 100 100 100 57 6 46 5 5 5 6 12 8 34 5 8 1 45 65 78 66 100 100 100 100 100 100 99 95 100 92 87
100 100 100 100 100 100 100 100 100 100 100 97 99 100 100 36 38 25 22 31 5 5 40 65 34 19 57 16 24 47 99 94 100 100 100 100 100 100 100 100 100 100 100 100
100 100 100 100 100 100 100 100 100 100 100 100 98 100 100 80 95 19 5 5 5 4 4 5 8 53 5 5 4 1 94 100 95 100 66 100 99 100 100 100 100 100 100 100
100 100 100 100 100 100 100 100 100 100 100 100 100 100 100 95 99 47 32 10 5 3 6 84 75 42 5 5 3 4 1 74 99 42 100 40 99 100 100 100 100 100 100 100
100 100 100 100 100 100 100 100 100 100 100 100 100 99 100 100 100 45 66 50 4 1 5 24 58 5 84 5 4 4 0 3 33 8 92 98 100 100 100 100 100 100 99 85
100 100 100 100 100 100 100 100 100 100 100 100 100 100 100 78 31 98 100 27 4 0 6 7 22 100 100 92 21 0 0 0 4 1 10 100 100 100 100 95 100 100 100 98
100 100 100 100 100 100 96 67 100 100 100 100 100 100 95 100 100 72 20 4 5 6 22 93 100 100 100 100 96 98 80 1 0 0 9 100 100 100 42 100 100 100 100 89
98 93 100 100 100 100 100 100 100 100 100 99 100 100 100 100 39 26 5 13 50 100 79 100 95 100 100 100 100 97 93 1 0 0 4 100 100 100 99 100 100 100 100 94
100 100 100 100 100 100 100 100 100 97 97 100 100 100 95 37 55 64 26 93 100 100 100 100 100 100 100 100 98 85 5 4 0 0 7 100 100 100 100 100 100 100 100 100
100 100 100 100 100 100 100 100 100 100 100 100 100 53 100 46 56 62 42 73 100 100 100 100 100 100 100 100 6 5 5 5 1 71 100 100 100 100 100 100 100 100 100 100
100 100 100 100 100 100 100 99 100 100 100 100 100 96 25 37 56 52 53 100 100 100 100 100 100 100 100 100 35 26 37 41 67 100 100 100 100 100 100 100 100 100 100 100
100 100 100 100 100 100 94 84 85 73 92 82 20 8 5 5 50 70 100 100 100 100 100 100 100 100 100 100 100 100 100 100 95 100 100 100 100 100 100 100 100 100 100 100
100 100 100 100 100 94 18 82 97 100 100 100 96 32 5 43 93 100 100 100 100 100 100 100 100 100 100 100 100 100 100 100 100 100 100 100 100 100 100 100 100 100 100 100
100 100 100 100 100 20 22 100 100 40 8 5 35 23 67 100 86 100 100 100 100 100 100 100 100 100 100 100 100 100 100 100 100 100 100 100 100 100 100 100 100 100 100 100
100 100 100 63 100 100 100 80 100 70 85 43 45 10 98 100 100 100 100 100 100 100 100 100 100 100 100 100 100 100 100 100 100 100 100 100 100 100 100 100 100 100 100 100
98 89 96 100 98 83 86 100 84 99 100 81 93 100 100 100 100 100 100 100 100 100 100 97 100 100 100 100 100 100 100 100 100 100 100 100 100 100 100 100 100 100 100 100
72 91 100 99 100 98 90 16 58 91 26 100 96 100 100 100 100 100 100 100 100 100 100 100 100 100 100 100 100 100 100 100 100 100 100 100 100 100 100 100 100 100 100 100

GFSNW_prec_cloud_177.txt.gz
Cloud_Cover
100 100 100 100 100 100 100 100 100 100 100 100 100 100 100 100 100 100 100 100 100 100 100 99 100 100 100 100 100 100 100 100 100 100 97 96 100 100 100 100 100 100 100 100
100 100 100 100 100 100 100 100 100 100 100 100 100 100 100 100 100 100 100 100 100 100 100 100 100 100 100 100 100 100 100 100 100 100 100 100 100 100 100 100 100 100 100 100
100 100 100 100 100 100 100 100 100 100 100 100 100 100 100 100 100 100 100 100 100 100 100 100 100 100 98 100 100 100 100 100 100 100 100 100 100 100 100 100 100 100 100 100
100 100 100 100 100 100 100 100 100 100 100 100 100 100 100 100 100 100 100 100 97 97 72 95 97 100 100 100 100 100 100 100 100 100 100 100 100 100 100 100 100 100 100 100
100 100 100 100 100 100 100 100 100 100 100 100 100 100 100 100 100 90 100 89 100 100 100 100 100 100 100 100 100 100 100 70 100 81 89 100 100 100 81 100 100 100 100 100
100 100 100 100 100 100 100 100 100 100 100 100 100 97 100 100 100 100 100 100 100 100 100 100 100 100 100 99 19 93 28 97 100 21 23 54 100 100 100 100 100 100 100 100
100 100 100 100 100 100 100 100 100 100 100 100 100 100 100 100 100 100 100 100 100 100 100 100 100 100 100 100 100 100 5 33 59 24 20 92 4 100 100 100 100 100 100 100
100 100 100 100 100 100 100 100 100 100 100 100 100 100 100 100 100 100 100 27 89 100 100 77 11 99 93 97 97 100 84 99 91 100 19 3 0 2 24 100 100 94 98 100
100 100 100 100 100 100 100 100 100 100 100 100 100 100 100 100 100 100 45 5 5 28 99 81 78 99 45 4 20 91 93 8 100 100 100 63 10 7 80 100 100 100 30 55
70 95 100 100 100 100 100 100 100 100 94 100 100 91 86 72 41 50 61 12 5 5 6 77 67 6 5 2 4 4 3 31 69 8 98 37 97 100 100 100 52 100 100 100
100 100 100 100 100 100 88 98 86 15 93 98 6 24 5 56 88 5 5 11 5 5 6 12 17 34 5 8 0 0 1 5 5 51 33 99 100 71 100 100 98 100 100 100
100 100 100 100 100 100 100 44 82 93 100 73 20 78 67 72 98 88 74 8 5 5 28 74 68 91 85 18 5 0 4 3 5 100 90 100 100 100 100 100 100 100 100 100
100 100 100 100 100 100 100 100 100 100 96 98 34 76 100 85 100 100 94 20 5 5 5 5 42 37 5 53 9 1 0 0 9 20 73 100 100 100 100 88 100 100 100 100
100 100 100 100 100 100 100 100 100 100 100 77 97 70 59 100 60 100 97 12 5 5 5 5 16 38 5 5 2 4 1 0 0 0 36 97 76 99 38 100 100 100 100 100
100 100 100 100 100 100 100 100 100 100 100 100 100 98 98 95 100 100 76 5 7 28 14 57 93 5 57 5 24 5 55 18 18 0 0 12 70 88 47 100 100 100 100 100
100 100 100 100 100 100 100 100 100 100 100 100 100 100 100 100 100 83 71 54 56 15 82 60 5 5 5 61 6 91 100 100 40 0 2 0 5 11 69 100 100 100 100 100
94 100 100 100 100 100 100 84 94 100 100 100 100 100 100 100 86 96 100 35 30 72 26 59 10 94 79 100 91 99 100 100 100 89 68 11 5 99 100 100 100 100 100 100
100 100 100 100 100 100 100 100 100 100 100 100 100 100 100 100 100 100 17 86 36 92 71 73 100 98 100 100 100 100 100 100 49 7 5 37 69 81 91 100 100 100 100 100
100 100 100 100 100 100 80 100 100 100 100 100 100 100 100 100 100 100 73 90 99 32 100 100 96 100 100 100 100 100 100 100 6 1 1 100 100 100 95 100 100 100 100 100
100 100 100 100 100 99 100 100 100 100 100 100 100 100 100 100 99 77 34 89 100 100 97 89 100 100 100 100 100 100 91 60 51 0 3 100 100 100 100 100 100 100 100 100
100 100 100 100 100 100 100 100 100 100 100 100 100 100 100 38 23 34 13 17 93 98 100 100 92 100 100 99 56 73 11 4 17 11 90 100 100 100 100 100 100 100 100 100
100 100 100 100 100 100 100 100 100 91 92 99 100 100 94 51 10 5 76 96 86 100 100 100 100 100 100 100 100 100 100 82 82 100 100 100 100 100 100 100 100 100 100 100
100 100 98 100 99 97 100 100 100 100 100 100 79 16 6 15 18 44 100 100 100 100 100 100 99 100 100 100 100 100 100 100 100 100 100 100 100 100 100 100 100 100 100 100
100 100 90 100 66 99 98 100 100 97 25 7 51 70 8 74 46 96 100 100 100 100 100 100 100 100 100 100 100 100 100 100 100 100 100 100 100 100 100 100 100 100 100 100
100 100 100 100 99 86 76 99 93 100 99 96 51 7 6 91 98 99 100 100 100 100 100 100 100 100 100 100 100 100 100 100 100 100 100 100 100 100 100 100 100 100 100 100
100 100 100 100 100 99 97 99 98 96 100 73 27 83 88 92 100 100 100 100 100 100 100 100 100 100 100 100 100 100 100 100 100 100 100 100 100 100 100 100 100 100 100 100
56 94 100 100 94 14 47 53 76 79 43 80 97 97 83 100 100 100 100 100 100 100 100 100 100 100 100 100 100 100 100 100 100 100 100 100 100 100 100 100 100 100 97 100

GFSNW_prec_cloud_180.txt.gz
Cloud_Cover
100 100 100 100 100 100 100 100 100 100 100 100 100 100 100 100 100 100 100 100 100 100 82 100 100 98 99 93 92 100 100 100 50 11 52 97 93 100 100 100 100 100 100 100
100 100 100 100 100 100 100 100 100 100 100 100 100 100 100 100 100 100 100 100 100 100 100 100 100 100 100 100 100 100 100 81 65 12 25 100 100 100 100 100 100 100 100 99
100 100 100 100 100 100 100 100 100 100 100 100 100 100 100 100 100 100 100 100 100 100 100 100 100 100 100 100 100 100 100 100 100 100 100 100 100 100 81 100 100 100 100 100
100 100 100 100 100 100 100 100 100 100 100 100 100 100 100 100 100 100 100 100 100 100 83 95 99 100 100 100 100 100 84 43 100 100 100 100 100 47 88 100 100 100 100 100
100 100 100 100 100 100 100 100 100 100 100 100 100 100 100 100 100 100 100 100 100 100 100 100 100 100 100 100 100 100 97 35 51 92 100 100 40 74 51 82 100 100 100 100
100 100 100 100 100 100 100 100 100 100 100 100 100 100 100 100 100 92 96 100 100 100 100 100 100 100 100 100 100 100 100 100 100 100 98 52 3 7 41 43 61 100 100 100
100 100 100 100 100 100 100 100 100 100 100 99 99 100 100 100 99 80 83 100 100 100 100 100 92 92 95 100 100 100 100 100 68 50 0 72 0 0 0 2 2 12 45 95
100 100 100 100 100 100 100 100 100 100 100 100 100 100 100 100 99 99 100 100 100 100 100 79 95 75 100 100 100 100 100 82 28 50 37 15 0 58 100 98 43 91 91 95
100 100 100 100 100 100 100 100 100 100 100 100 100 100 100 100 100 100 100 99 98 65 100 100 100 100 100 100 100 58 84 62 14 97 100 4 5 4 42 48 90 100 87 100
100 100 100 100 100 100 100 100 100 100 100 100 100 100 100 100 100 100 100 100 100 100 100 100 100 100 100 81 35 5 66 98 83 69 100 8 4 1 11 100 48 61 76 97
6 47 100 100 100 100 100 100 100 100 100 100 100 100 100 100 100 100 100 100 100 100 100 100 100 100 54 20 0 0 0 24 66 97 100 68 0 78 71 100 98 100 100 100
100 7 5 96 100 100 100 100 100 100 100 100 100 100 100 100 100 100 100 100 100 100 100 80 30 26 75 14 19 2 4 2 4 5 2 0 1 1 83 88 100 100 68 36
100 89 82 100 100 100 100 100 100 100 100 99 72 56 44 76 61 100 100 100 100 40 5 5 40 9 22 74 41 1 0 0 5 5 0 0 0 0 5 99 100 100 100 100
100 99 88 100 100 100 100 100 100 100 89 8 14 1 11 65 16 99 100 100 44 14 5 6 30 5 5 5 0 4 3 3 1 1 0 0 0 0 1 9 67 100 100 100
94 100 100 100 100 100 100 100 100 100 100 68 32 5 22 94 100 100 100 100 50 5 5 6 28 37 5 5 31 5 57 22 45 4 0 4 0 0 0 2 97 100 100 100
100 100 100 100 100 100 100 100 100 100 100 64 100 72 48 100 100 100 100 90 12 7 59 28 99 85 83 86 41 84 100 81 87 60 23 5 2 0 0 5 100 100 100 100
93 100 100 100 100 100 100 100 100 99 100 100 100 100 95 100 100 100 100 66 73 42 96 100 43 5 62 78 61 84 100 100 100 100 100 87 100 1 0 75 100 100 100 100
100 100 100 100 100 100 100 100 100 100 100 100 100 100 100 100 100 100 94 82 99 100 97 40 83 52 97 90 56 93 100 100 100 72 82 10 12 3 5 100 100 100 100 100
100 100 100 100 100 100 100 100 100 99 100 100 100 100 100 100 100 96 98 95 100 85 97 99 94 95 100 98 100 22 24 100 97 87 81 2 1 0 33 100 100 100 100 100
100 100 100 100 100 94 100 100 100 100 100 100 100 100 100 100 100 100 100 99 97 100 47 50 99 100 100 96 100 100 100 100 68 5 1 0 53 74 82 100 100 100 100 100
97 100 100 100 100 100 96 99 93 100 100 100 99 100 100 62 98 88 78 66 67 100 34 78 98 85 99 100 100 100 100 19 9 22 72 88 82 100 100 100 100 100 100 100
97 100 100 92 81 83 100 100 100 100 100 72 98 99 100 100 100 82 88 62 76 85 38 99 100 40 100 100 100 100 97 89 100 100 100 100 100 100 100 100 100 100 100 100
99 97 93 100 100 100 100 100 100 100 100 100 100 100 100 76 56 18 71 100 83 68 100 98 100 100 100 100 100 100 100 100 100 100 100 100 100 100 100 100 100 100 100 100
98 100 100 100 100 100 100 100 92 99 100 100 93 99 96 72 13 38 100 100 94 100 100 100 100 100 100 100 100 100 100 100 100 100 100 100 100 100 100 100 100 100 100 100
87 51 79 100 100 100 100 100 100 100 100 100 100 87 20 90 83 88 100 100 100 100 100 100 100 100 100 100 100 100 100 100 100 100 100 100 100 100 100 100 100 100 100 100
100 100 100 100 96 75 100 100 100 96 17 14 20 42 59 37 83 100 100 100 100 100 100 100 100 100 100 100 100 100 100 100 100 100 100 100 100 100 100 100 100 100 100 100
100 100 100 99 81 99 96 61 83 97 100 100 96 46 48 69 100 100 100 100 100 100 94 100 100 100 100 100 100 100 100 100 100 100 100 100 100 100 100 100 100 100 100 100